Погода в Пинюге

Россия / Кировская область     60°15′03″N   47°46′55″E
темп.,
°C
ветер,
м/с
пор.,
м/с
влажн.,
%
обл.,
%
осадки,
мм/ч
давл.,
гПа
погр.,
м
18 апреля, вс
вс1800:00+2сз210845 0.0 1026215
03:00+1с3109390 0.0 1027339
06:00+2св4983100 0.0 1028648
09:00+2всв57535 0.0 10311067
12:00+4всв56435 0.0 10321523
15:00+5всв56415 0.0 10321696
18:00+3всв47515 0.0 1033644
21:00−1всв28745 0.0 1035178
19 апреля, пн
пн1900:00−2всв27795 0.0 1036157
03:00−3всв25805 0.0 1037120
06:00−1в27675 0.0 1038273
09:00+3в35445 0.0 10381243
12:00+5в34377 0.0 10371534
15:00+6в33350 0.0 10351540
18:00+4в23520 0.0 103551
21:000вюв22650 0.0 103615
20 апреля, вт
вт2000:00−2ююв12700 0.0 103611
03:00−2ююв11680 0.0 103710
06:000ююв12591 0.0 103688
09:00+5ююв12390 0.0 1036785
12:00+8ююв22330 0.0 10341243
15:00+9ююв22320 0.0 10331346
18:00+7юв22480 0.0 103133
21:00+2юв22630 0.0 103137
21 апреля, ср
ср2100:00+1юв22710 0.0 103135
03:00−1юв27753 0.0 1031121
06:00+2вюв31163100 0.0 1029370
09:00+7юв6103983 0.0 1027943
12:00+10юв61132100 0.0 10251341
15:00+11юв61438100 0.0 10221479
18:00+9ююв61544100 0.0 10211405
21:00+7ююв71647100 0.0 10191294
22 апреля, чт
чт2200:00+5ююв71471100 0.0 10191070
03:00+3ююв61496100 0.1 1018867
06:00+3ююв61495100 0.1 1018783
09:00+5ю61284100 0.1 1019999
12:00+6ю61174100 0.1 10201483
15:00+8ююз51169100 0.1 10211405
18:00+7ю51174100 0.1 10221125
21:00+6ю5128015 0.2 1022706